Location: Bidart
(43.4376°N, 1.5913°W)
Time: 04:13:18
(UTC+00:00)

USA 229 DEB - Pass Details

Date: 18 April 2026
Orbit: 844 x 1364 km, 63.4° (Epoch: 10 January)

Event Time Altitude Azimuth Distance (km) Brightness Sun altitude
Rises 22:28:13 0° 321° (NW) 3,855 7.7 -31.1°
Reaches altitude 10° 22:31:36 10° 337° (NNW) 2,993 6.9 -31.4°
Maximum altitude 22:36:51 21° 24° (NNE) 2,412 5.9 -31.8°
Drops below altitude 10° 22:42:29 10° 71° (ENE) 3,258 6.2 -32.3°
Enters shadow 22:43:54 - 77° (ENE) 3,617 6.3 -32.4°
